TimeMDT,TemperatureF,Dew PointF,Humidity,Sea Level PressureIn,VisibilityMPH,Wind Direction,Wind SpeedMPH,Gust SpeedMPH,PrecipitationIn,Events,Conditions,WindDirDegrees,DateUTC
12:22 AM,55.4,55.4,100,30.15,3.0,SSE,18.4,-,0.01,Rain,Light Rain,160,2013-09-17 06:22:00
12:36 AM,55.4,55.4,100,30.14,2.5,SSE,16.1,-,0.01,Rain,Light Rain,160,2013-09-17 06:36:00
12:46 AM,57.2,55.4,94,30.14,1.5,South,18.4,-,0.01,Rain,Light Rain,170,2013-09-17 06:46:00
12:53 AM,57.0,55.9,96,30.08,1.8,South,16.1,-,0.01,Rain,Light Rain,170,2013-09-17 06:53:00
1:01 AM,57.2,55.4,94,30.14,2.5,South,15.0,-,0.00,Rain,Light Rain,170,2013-09-17 07:01:00
1:22 AM,57.2,57.2,100,30.13,3.0,South,15.0,-,0.01,,Overcast,170,2013-09-17 07:22:00
1:53 AM,57.9,57.0,97,30.06,2.5,South,15.0,-,0.01,Rain,Light Rain,180,2013-09-17 07:53:00
2:10 AM,57.2,57.2,100,30.11,1.2,South,15.0,-,0.00,Rain,Light Rain,180,2013-09-17 08:10:00
2:53 AM,57.9,57.9,100,30.03,0.8,South,15.0,-,0.00,,Mist,170,2013-09-17 08:53:00
3:10 AM,57.2,57.2,100,30.08,1.2,South,13.8,-,0.00,Rain,Light Rain,170,2013-09-17 09:10:00
3:53 AM,59.0,59.0,100,30.00,1.2,South,12.7,-,0.00,,Overcast,190,2013-09-17 09:53:00
4:04 AM,60.8,59.0,94,30.06,3.0,South,12.7,-,0.01,,Overcast,180,2013-09-17 10:04:00
4:29 AM,60.8,60.8,100,30.05,4.0,South,12.7,-,0.01,,Overcast,190,2013-09-17 10:29:00
4:48 AM,62.6,60.8,94,30.04,5.0,South,12.7,-,0.01,,Overcast,190,2013-09-17 10:48:00
4:53 AM,62.1,60.1,93,29.97,5.0,South,11.5,-,0.01,,Overcast,190,2013-09-17 10:53:00
5:32 AM,62.6,60.8,94,30.04,4.0,South,11.5,-,N/A,,Overcast,190,2013-09-17 11:32:00
5:53 AM,62.1,60.1,93,29.96,5.0,South,12.7,-,N/A,,Overcast,190,2013-09-17 11:53:00
6:53 AM,63.0,60.1,90,29.97,5.0,SSW,9.2,-,N/A,,Overcast,200,2013-09-17 12:53:00
7:53 AM,63.0,60.1,90,29.96,7.0,SW,12.7,-,N/A,,Overcast,220,2013-09-17 13:53:00
8:53 AM,64.0,60.1,87,29.96,10.0,SSW,10.4,-,N/A,,Overcast,210,2013-09-17 14:53:00
9:17 AM,64.4,60.8,88,30.03,10.0,SSW,10.4,-,N/A,,Mostly Cloudy,210,2013-09-17 15:17:00
9:53 AM,66.0,60.1,81,29.95,10.0,SW,10.4,-,N/A,,Mostly Cloudy,230,2013-09-17 15:53:00
10:44 AM,69.8,60.8,73,30.01,10.0,WSW,12.7,-,N/A,,Partly Cloudy,240,2013-09-17 16:44:00
10:53 AM,71.1,62.1,73,29.92,10.0,SW,10.4,-,N/A,,Partly Cloudy,220,2013-09-17 16:53:00
11:53 AM,73.9,62.1,66,29.89,10.0,SSW,11.5,-,N/A,,Clear,200,2013-09-17 17:53:00
12:53 PM,78.1,63.0,60,29.85,10.0,SSW,11.5,-,N/A,,Clear,200,2013-09-17 18:53:00
1:53 PM,80.1,62.1,54,29.82,10.0,South,15.0,-,N/A,,Clear,180,2013-09-17 19:53:00
2:53 PM,82.0,61.0,49,29.79,10.0,South,16.1,-,N/A,,Clear,180,2013-09-17 20:53:00
3:53 PM,82.9,60.1,46,29.77,10.0,South,17.3,23.0,N/A,,Clear,180,2013-09-17 21:53:00
4:53 PM,82.9,60.1,46,29.75,10.0,SSW,13.8,-,N/A,,Clear,200,2013-09-17 22:53:00
5:53 PM,81.0,57.9,45,29.75,10.0,South,9.2,-,N/A,,Clear,190,2013-09-17 23:53:00
6:53 PM,73.0,62.1,68,29.75,10.0,South,6.9,-,N/A,,Clear,180,2013-09-18 00:53:00
7:53 PM,69.1,62.1,78,29.77,10.0,South,8.1,-,N/A,,Clear,190,2013-09-18 01:53:00
8:53 PM,68.0,61.0,78,29.78,10.0,South,8.1,-,N/A,,Clear,180,2013-09-18 02:53:00
9:53 PM,66.9,61.0,81,29.77,10.0,South,11.5,-,N/A,,Clear,180,2013-09-18 03:53:00
10:53 PM,66.0,61.0,84,29.76,10.0,South,11.5,-,N/A,,Clear,180,2013-09-18 04:53:00
11:53 PM,64.0,60.1,87,29.75,10.0,South,9.2,-,N/A,,Clear,180,2013-09-18 05:53:00